User: anonymous   Login
Location: *
(51.5000°N, 0.1100°W)
Time: 06:27:06
(UTC+00:00)
Language:

Lacrosse 5 rocket - Orbit

View from above orbital plane
View from above orbital plane
View from above satellite
View from above satellite

Ground track
Ground track

The orbit data is extracted from the following two-line orbital elements,

1 28647U 05016B   24194.58146611  .00008888  00000-0  38326-3 0  9998
2 28647  56.9907 283.3054 0094955 323.0910  36.3623 15.19337301284370
Epoch (UTC): 12 July 2024 13:57:18
Eccentricity: 0.0094955
inclination: 56.9907°
perigee height: 442 km
apogee height: 573 km
right ascension of ascending node: 283.3054°
argument of perigee: 323.0910°
revolutions per day: 15.19337301
mean anomaly at epoch: 36.3623°
orbit number at epoch: 28437

The dashed part of the orbit path shows where the satellite is in the earth's shadow,  

DLR